Wind_Speed
24 23 22 20 19 18 18 18 19 19 20 20 19 19 20 21 22 23 25 25 24 24 25 26 27 27 27 26 26 25 24 22 22 24 24 23 22 21 21 22 23 25 27 29 29 28 27 25 23 22 21 20 19 18 18 18 17 17 16 17 18 18 18 18 19 19 19 18 17
20 19 18 18 18 18 18 18 19 18 18 17 17 18 20 22 25 26 26 26 25 25 25 26 26 26 26 26 25 24 23 21 21 22 23 23 24 24 24 24 26 27 29 29 28 26 24 23 21 20 20 19 18 17 16 16 16 16 17 18 18 18 18 17 17 17 16 16 15
15 15 16 16 16 16 16 16 16 16 16 17 18 20 22 25 27 28 28 27 26 25 25 25 26 26 26 25 24 23 22 21 21 21 22 23 24 25 25 26 27 28 28 27 26 23 22 22 21 20 20 19 17 17 17 17 17 17 17 17 18 18 17 17 17 16 16 15 15
15 15 15 15 15 15 16 17 18 19 19 21 22 24 25 26 27 28 28 28 27 26 25 25 25 25 25 25 24 23 22 22 22 23 23 24 25 25 25 26 26 26 27 27 26 24 23 21 21 20 17 15 13 12 14 16 17 16 16 17 17 17 17 17 18 18 18 18 18
16 16 16 17 18 18 19 19 20 21 21 22 24 25 25 24 24 25 26 26 26 26 26 25 25 25 24 24 24 23 23 24 24 24 24 25 25 25 25 24 22 24 27 27 25 24 23 22 20 18 15 14 13 12 13 14 15 16 16 17 17 17 17 18 18 19 19 20 21
16 17 18 18 19 20 20 20 21 21 22 23 24 24 23 21 21 22 22 23 24 25 26 26 25 24 24 23 23 23 24 24 25 25 25 24 24 24 24 23 24 25 25 25 23 21 20 19 17 15 15 14 14 15 15 15 16 18 19 19 20 20 20 20 20 19 19 20 21
18 18 18 19 19 20 20 21 21 22 23 24 24 24 22 22 23 24 25 25 26 26 26 25 25 24 23 23 23 23 23 24 24 25 24 23 23 23 23 23 24 24 24 22 20 17 16 15 14 14 15 16 17 17 18 19 20 21 22 23 24 24 24 23 21 19 17 17 17
19 19 18 18 19 20 21 22 22 23 23 24 24 23 23 25 26 28 28 28 27 26 25 25 25 24 23 22 22 22 22 23 24 23 22 21 22 23 22 22 22 22 20 18 16 15 16 16 15 15 16 18 20 21 21 22 23 24 24 25 25 25 24 21 18 15 12 11 11
19 18 18 18 18 20 21 22 23 23 24 24 23 23 24 26 28 29 28 27 27 26 25 24 23 23 23 23 23 23 23 24 23 23 23 23 23 22 22 21 21 19 18 17 16 16 16 17 17 18 19 21 22 23 24 24 24 24 24 23 21 19 16 13 10 8 7 6 6
20 20 19 19 19 20 22 23 23 23 23 22 22 22 23 25 26 26 25 26 26 26 24 22 22 22 23 23 23 23 23 23 23 23 22 21 21 22 22 20 19 19 19 18 17 17 17 18 20 21 22 24 25 25 25 25 24 22 20 17 14 10 7 5 4 3 3 3 4
22 22 21 20 20 21 22 23 23 22 21 21 21 22 23 23 23 23 23 23 24 24 23 21 21 22 22 22 22 22 23 23 23 21 21 22 22 22 22 20 20 20 20 19 18 18 19 21 23 24 25 25 25 25 24 22 20 17 13 10 7 4 3 3 3 3 3 4 4
22 22 21 21 22 22 23 23 23 22 20 20 21 22 23 24 23 23 23 23 23 23 22 21 20 20 21 20 20 20 21 22 22 21 21 21 22 22 21 21 21 20 19 19 19 19 20 23 25 25 25 25 23 21 19 17 14 12 9 7 6 6 6 6 6 6 6 7 7
22 21 21 21 21 22 23 24 22 21 20 20 21 22 23 24 24 23 23 22 22 21 20 19 18 18 18 19 19 19 19 20 20 20 19 19 20 20 20 21 21 20 19 18 19 20 21 22 23 23 22 21 19 16 14 12 11 9 9 8 8 8 8 9 9 9 9 9 10
21 21 20 20 21 21 22 22 20 19 20 21 22 23 24 25 24 23 22 22 22 21 19 18 16 16 17 18 18 18 18 18 18 18 18 18 19 19 20 21 22 21 20 19 19 20 20 20 20 18 17 16 14 13 12 11 11 10 10 10 10 10 10 10 10 11 11 11 11
20 19 19 19 19 20 20 19 18 18 19 21 22 24 25 25 23 22 23 24 24 23 20 18 16 15 16 17 17 17 17 18 18 18 19 19 20 20 21 22 22 21 20 19 19 19 19 19 18 17 16 15 14 13 13 12 12 12 12 12 12 12 12 12 12 12 12 12 12
19 18 17 18 18 19 19 18 19 20 22 23 25 27 28 27 25 24 25 26 26 24 21 17 15 14 14 15 16 16 16 18 18 19 19 20 22 23 24 23 21 20 19 19 19 19 19 19 19 18 18 17 16 15 14 13 13 13 13 13 13 13 12 12 12 13 13 13 13
18 17 17 18 19 20 20 21 23 25 27 28 30 30 29 28 27 25 25 25 25 24 21 17 15 14 14 14 15 16 17 18 20 21 22 24 26 28 26 23 20 19 19 19 19 19 19 19 19 19 18 17 16 15 15 14 15 15 15 15 14 14 13 13 13 13 14 15 15
17 17 18 20 21 22 23 25 27 28 30 31 31 30 29 28 27 25 24 24 24 24 22 20 17 14 14 14 16 17 19 20 23 25 27 29 30 29 27 24 23 22 23 23 23 22 21 20 19 19 18 16 16 15 16 16 17 17 17 17 16 15 15 14 14 14 14 14 14
16 18 20 22 24 25 27 28 29 30 30 30 30 29 27 26 26 24 23 22 22 22 21 20 17 15 15 17 19 22 23 25 27 29 31 31 29 26 24 24 25 26 26 27 27 26 25 24 22 21 19 17 16 16 16 17 18 18 18 18 17 17 16 16 15 15 14 13 13
19 21 23 24 26 27 29 30 30 30 30 29 28 26 24 24 23 22 20 18 19 20 20 19 19 20 21 22 24 25 27 29 30 31 30 27 24 22 22 22 23 23 23 23 23 23 23 23 22 22 20 19 17 16 15 15 15 16 17 17 18 18 18 17 17 15 14 13 13
23 25 26 27 27 28 29 29 29 29 28 26 25 24 22 21 20 19 19 19 20 20 21 21 22 23 24 25 26 27 28 28 28 27 25 23 21 20 19 19 18 18 17 16 16 16 16 16 16 16 16 15 15 14 13 13 14 14 16 17 18 18 18 17 17 16 15 15 15
27 28 28 28 28 28 27 27 27 26 24 23 23 22 21 20 20 20 20 21 21 22 23 24 25 26 26 27 26 26 25 24 23 21 20 19 18 17 16 15 14 13 13 12 12 12 12 12 13 13 14 14 15 15 15 14 14 15 15 16 16 17 17 17 17 17 16 16 17
29 29 29 27 27 26 25 24 23 22 21 21 21 22 21 21 21 21 21 21 22 23 24 25 26 27 27 26 25 24 23 21 20 19 18 17 16 16 15 15 15 15 15 15 15 15 15 15 16 16 17 18 19 19 19 19 18 17 17 17 17 17 18 18 18 18 18 18 19
29 29 28 27 25 24 23 22 20 19 18 19 20 22 22 22 21 22 22 22 23 24 24 25 25 25 25 25 24 23 22 21 20 20 19 19 19 19 20 20 20 20 20 20 20 20 20 19 20 20 20 21 21 22 22 21 21 21 20 20 20 19 19 19 19 19 19 20 20
29 28 27 26 24 22 21 19 17 16 17 19 20 21 22 22 22 22 22 22 23 23 23 23 23 23 23 22 22 21 21 21 21 21 22 22 22 23 23 24 24 24 23 23 23 22 22 22 21 21 22 22 22 22 22 23 23 23 22 22 22 21 20 20 20 19 19 19 20
28 27 26 25 24 21 18 15 15 16 18 19 19 20 21 21 21 21 21 21 21 20 20 20 21 21 21 21 21 20 21 21 21 21 21 21 21 22 22 22 22 22 22 22 22 21 21 21 21 21 21 21 22 22 22 22 22 23 23 23 22 22 21 20 20 19 18 19 20
27 25 24 24 21 18 15 14 15 16 17 18 18 18 18 18 17 17 17 17 18 18 19 19 20 21 21 21 21 21 21 21 21 21 20 20 20 19 19 19 19 20 20 20 20 20 19 19 20 20 20 20 21 21 21 21 21 21 21 21 21 21 20 20 19 19 19 20 21
24 22 21 19 17 15 15 15 15 16 16 17 16 16 15 15 15 14 15 16 17 18 19 19 20 21 21 21 21 22 22 22 22 22 21 20 20 19 19 18 18 18 18 18 18 18 19 19 19 19 19 20 20 20 20 20 20 19 19 19 18 18 18 18 18 19 19 20 21
21 20 19 17 16 15 15 15 15 16 15 15 15 14 14 14 15 15 16 17 18 18 19 20 21 21 21 21 22 22 23 23 23 23 23 22 21 20 20 19 19 19 19 19 18 18 18 19 19 19 19 19 19 19 19 17 16 17 17 16 16 16 16 17 17 18 19 19 19
19 18 17 16 16 15 14 14 15 15 15 14 14 13 14 14 15 15 16 17 18 19 20 21 21 21 21 21 21 21 21 21 21 22 22 23 23 22 22 21 20 20 20 20 19 19 19 19 19 19 19 19 19 19 18 18 17 17 17 16 16 16 17 17 17 18 18 18 18
17 16 15 15 14 13 13 14 14 14 14 13 13 13 14 14 14 14 15 16 17 19 19 19 19 19 19 18 17 17 18 19 19 19 20 21 21 22 21 20 18 18 20 21 20 20 19 19 19 19 19 20 20 20 20 19 19 18 17 17 17 17 17 18 18 18 18 18 18
16 15 13 12 12 12 13 13 13 13 13 13 13 14 14 13 13 13 13 15 16 17 17 17 17 17 17 16 15 15 16 18 19 19 19 19 19 19 19 17 14 15 19 21 22 21 21 20 20 21 21 21 22 22 22 21 20 19 18 18 18 18 18 18 18 18 18 19 19
16 13 11 10 11 11 12 12 13 13 13 13 14 14 14 13 13 12 12 14 15 16 16 16 16 16 15 15 15 16 17 19 19 19 19 18 18 17 16 14 12 14 18 21 23 23 22 22 22 22 22 23 23 23 23 22 20 19 19 19 19 19 19 18 19 19 19 20 20
14 12 10 9 10 10 11 11 12 12 12 13 14 15 14 13 13 12 12 13 15 16 16 15 15 15 14 14 15 16 18 20 20 19 19 18 18 18 17 14 12 14 19 22 23 23 23 23 23 23 23 24 24 24 24 23 21 20 19 19 19 19 19 19 20 20 20 21 20
13 11 9 9 9 10 10 10 11 11 11 13 15 15 13 13 12 12 12 13 15 15 15 15 15 14 14 14 15 17 19 20 20 20 20 19 19 19 18 16 13 15 20 23 23 23 23 23 23 23 24 24 24 24 24 23 21 20 20 20 20 20 20 20 20 21 21 20 20
11 10 9 9 9 9 10 11 11 10 11 13 14 14 13 13 13 13 13 14 15 16 16 16 15 15 14 15 16 18 19 20 20 21 21 21 20 20 19 18 16 17 21 23 24 23 23 23 23 24 24 24 24 24 24 22 21 20 20 19 19 19 19 19 19 20 20 20 20
9 9 10 10 9 9 10 11 11 11 11 12 13 13 13 13 14 14 14 15 16 17 17 16 16 15 15 16 18 19 20 20 20 21 21 21 21 21 20 20 18 19 21 23 24 24 23 23 24 24 24 24 24 24 23 21 19 18 18 18 18 18 18 18 19 20 20 21 21
6 7 9 9 9 9 10 11 11 11 12 13 13 13 13 14 15 15 16 16 17 17 17 16 16 16 16 18 20 21 21 20 20 21 22 22 21 21 21 21 21 21 22 23 24 24 24 24 24 24 24 24 24 23 21 19 18 17 17 18 18 18 18 19 19 20 20 20 20
5 6 7 8 9 10 11 11 12 12 13 14 14 14 14 15 15 16 17 17 16 16 16 16 16 16 18 20 22 22 22 20 19 20 22 22 22 22 22 22 22 22 23 23 24 24 24 24 24 24 24 24 23 21 19 18 17 17 18 18 18 19 19 19 18 18 19 20 21
6 7 7 8 10 11 12 12 13 13 14 14 15 15 15 16 16 17 17 17 15 15 15 15 16 17 19 21 22 22 22 21 19 19 20 22 23 23 23 23 23 23 23 23 24 24 24 24 24 24 23 23 21 20 18 17 17 17 17 18 18 18 18 18 17 18 19 20 21
7 8 8 10 11 13 14 14 15 16 16 16 16 17 18 19 17 16 16 16 15 15 15 15 17 18 19 21 21 21 22 22 21 20 20 22 23 23 23 23 23 23 23 23 24 24 24 23 23 23 22 21 20 18 17 16 15 16 16 17 17 18 18 18 19 19 19 20 19
Wind_Direction
314 316 318 321 322 322 321 319 318 319 322 324 326 327 327 328 327 327 327 324 318 312 308 306 304 302 301 300 299 299 297 293 291 290 289 287 287 290 297 303 308 313 315 316 315 312 308 304 300 298 296 293 289 285 282 279 275 271 266 263 259 256 251 247 246 245 242 239 237
317 318 320 321 321 320 319 319 321 323 325 325 324 324 325 326 329 330 330 328 323 317 312 309 306 305 303 302 301 299 297 293 290 289 289 288 289 292 298 303 308 311 313 313 313 309 304 300 297 293 291 289 286 280 275 273 270 265 260 257 254 250 245 241 241 243 245 246 247
321 321 321 321 320 320 320 320 321 321 321 320 320 322 323 326 329 330 331 329 326 322 317 312 309 306 304 302 301 298 295 292 288 287 287 289 292 296 300 305 308 310 311 311 310 305 299 294 291 288 285 282 278 273 269 267 265 261 257 254 253 250 246 244 246 249 253 257 261
323 321 319 317 316 316 316 315 315 315 316 316 318 321 324 326 328 329 330 329 327 323 319 314 310 306 304 301 299 296 293 291 288 286 286 288 293 297 302 306 308 309 310 309 306 302 296 289 285 282 278 273 268 264 264 265 263 261 259 259 259 258 257 257 259 261 264 267 270
321 318 315 313 312 312 312 312 313 314 315 316 319 322 325 326 326 326 326 325 323 320 317 314 310 306 303 301 298 296 293 291 289 288 287 289 293 297 302 305 305 306 308 307 303 298 291 285 280 274 268 264 263 262 263 265 264 264 265 266 268 269 271 273 274 274 273 273 273
317 315 313 312 312 312 313 313 313 314 315 317 320 323 324 321 320 319 317 316 315 315 314 312 309 307 304 301 298 296 293 291 290 289 288 290 292 296 300 302 304 305 305 303 298 291 283 278 272 266 263 261 261 262 263 266 269 271 273 274 275 277 280 284 285 284 281 277 276
313 312 312 312 312 312 312 313 313 314 316 318 321 322 322 320 319 319 319 318 317 315 313 310 309 307 305 302 298 295 291 289 288 288 287 288 291 295 299 300 302 302 301 298 291 282 275 271 266 262 261 260 261 263 266 271 276 279 280 281 281 282 284 287 288 286 283 278 277
311 311 311 311 311 311 311 312 313 315 317 319 321 321 320 321 322 322 323 322 319 316 313 309 307 306 304 301 297 292 288 286 286 285 284 285 290 294 296 297 298 298 295 289 281 274 270 268 264 260 260 263 265 268 272 277 281 284 286 286 287 287 287 288 288 286 282 276 273
309 308 308 308 309 310 311 312 313 316 319 320 321 320 320 321 322 322 321 320 318 316 313 308 305 303 302 300 296 291 287 284 282 283 284 286 289 292 294 293 293 290 286 281 276 270 267 264 262 261 264 270 274 277 280 283 286 288 289 290 290 290 290 289 287 282 275 269 264
306 306 306 307 307 309 311 312 315 318 320 321 320 320 319 319 318 316 315 314 315 314 311 305 302 301 300 298 295 290 286 283 282 282 283 283 287 290 291 288 285 283 282 278 273 267 263 262 264 268 272 277 281 284 286 286 287 288 288 289 289 290 289 284 277 266 256 251 247
307 306 306 307 308 309 311 313 316 319 320 320 319 319 319 318 315 312 310 310 311 310 307 302 300 299 298 296 292 287 284 283 282 281 281 284 287 288 287 283 280 279 279 275 270 265 262 265 270 276 281 283 285 286 287 286 285 283 282 282 280 275 269 265 260 254 249 245 242
311 311 310 310 310 311 313 315 318 319 319 319 319 319 319 318 315 313 311 309 308 308 306 301 297 295 294 290 288 285 283 283 283 283 283 284 285 285 284 281 279 277 273 268 265 262 264 269 276 281 284 286 286 285 283 280 278 275 271 267 263 259 257 257 254 253 251 249 248
317 315 314 313 312 313 315 317 319 319 319 318 319 319 319 319 317 315 312 310 308 306 303 298 292 289 288 286 284 282 282 283 284 283 282 281 282 282 282 280 279 274 268 262 261 262 265 271 277 281 281 281 279 275 271 269 266 262 259 255 251 249 249 249 248 247 247 247 247
320 318 315 313 313 314 317 320 320 319 318 319 319 320 320 320 318 316 313 311 309 306 302 297 290 285 283 283 283 282 281 281 281 281 280 280 281 281 279 277 274 270 266 263 263 264 266 269 271 270 267 264 259 255 254 256 254 253 251 249 249 248 248 248 248 247 246 246 247
319 316 314 313 314 316 319 321 320 320 320 320 321 321 321 321 319 316 313 312 310 308 304 297 291 285 284 285 284 282 281 281 282 282 282 281 280 278 276 274 272 271 269 267 266 266 266 266 264 259 254 249 246 245 246 248 250 251 250 249 250 251 250 250 251 250 248 249 250
316 313 312 313 316 318 320 321 321 320 321 321 321 321 322 321 319 317 313 311 310 308 303 297 292 288 288 288 287 286 285 285 284 283 281 281 281 280 279 278 277 276 274 272 270 269 268 265 262 258 254 249 247 245 245 247 250 251 251 252 251 250 250 249 249 250 252 256 259
314 313 313 314 317 319 320 321 321 321 321 321 321 322 322 321 320 317 313 310 308 305 301 294 289 288 288 287 287 287 286 285 282 280 282 287 290 290 288 283 280 278 275 273 271 269 267 265 262 259 255 251 247 246 245 245 246 248 251 251 252 251 250 249 250 253 257 263 267
313 313 314 315 317 319 321 322 322 323 323 322 322 322 322 322 322 319 314 309 306 304 300 292 286 285 285 283 282 281 279 279 280 284 290 296 298 297 292 284 279 275 273 271 269 267 264 261 259 258 255 251 248 246 244 241 241 245 249 250 252 253 253 253 254 257 261 264 265
312 312 313 315 318 320 322 323 324 324 323 322 322 323 323 324 323 321 316 311 307 304 300 293 288 285 283 280 278 278 280 283 288 294 297 300 299 296 289 283 278 275 274 272 270 267 263 259 256 253 250 247 246 244 242 240 240 243 247 250 252 254 255 256 258 261 263 264 261
309 310 312 316 319 322 324 325 325 324 323 323 323 325 326 326 325 322 319 315 310 307 303 297 292 288 286 285 286 289 292 295 297 298 298 297 294 289 284 281 279 278 277 276 273 269 265 260 257 253 251 248 247 245 244 243 243 245 247 250 252 254 257 260 263 267 269 268 265
308 310 313 316 319 322 324 324 323 323 323 323 325 326 327 328 327 325 321 317 313 311 308 305 303 301 301 302 303 305 305 304 302 300 296 293 288 284 282 283 284 285 285 284 281 277 274 271 268 266 264 263 262 260 257 255 254 253 254 255 258 260 264 269 273 277 277 275 271
310 312 314 317 320 322 322 322 322 322 324 325 327 328 328 328 327 325 322 319 317 315 314 313 313 314 315 317 317 316 313 310 305 301 296 293 290 289 290 292 296 299 301 302 302 302 302 302 302 302 300 298 295 291 287 282 279 277 276 276 278 280 282 284 285 285 283 280 276
313 315 317 319 321 322 322 322 323 325 327 329 329 329 328 327 325 323 322 320 319 318 317 317 318 319 320 321 321 319 315 310 306 303 301 300 301 302 305 307 310 312 313 314 315 316 317 317 317 317 316 314 313 311 308 306 303 301 300 299 299 298 296 293 290 288 285 283 280
316 318 320 322 323 324 324 325 328 330 332 332 331 330 328 326 324 323 321 320 319 319 318 319 319 320 320 320 319 317 313 309 306 305 305 306 308 309 311 311 312 313 314 315 315 315 316 316 316 315 315 314 314 314 313 312 311 310 308 306 303 300 296 292 289 287 286 285 283
318 321 323 325 326 327 328 331 332 333 333 333 332 330 329 327 326 324 323 322 322 321 321 321 320 320 319 319 318 315 313 312 310 310 310 311 312 312 313 313 313 314 314 314 314 314 314 313 313 312 311 311 310 310 309 309 308 308 306 304 301 297 294 291 288 285 283 283 283
320 322 324 325 326 329 332 334 334 333 332 332 332 331 330 329 329 329 328 327 326 325 325 323 321 320 319 320 320 320 320 320 320 320 321 321 321 321 320 320 319 318 317 316 315 314 313 312 311 309 308 307 306 306 306 305 305 304 303 301 299 296 293 291 288 285 282 280 281
320 322 323 324 326 329 331 331 331 331 331 331 331 331 332 333 334 334 333 331 329 328 327 326 325 324 324 325 326 328 329 330 330 331 332 332 332 331 329 328 326 323 321 319 318 316 314 312 310 309 307 306 306 306 305 305 305 303 301 299 297 295 293 291 288 285 282 281 281
318 320 322 324 326 326 327 328 328 329 329 330 331 332 334 335 336 336 334 333 332 332 332 331 330 330 331 332 332 333 334 334 335 335 335 336 335 334 332 330 328 325 323 321 320 318 316 314 313 311 310 309 308 308 308 306 304 301 298 296 293 291 290 288 287 285 284 284 283
316 318 320 321 322 323 325 326 327 328 329 331 333 334 335 336 336 336 336 336 336 337 336 336 335 336 336 335 335 335 335 335 335 334 334 334 333 333 331 330 328 326 324 323 322 321 320 318 317 315 313 312 310 309 307 302 296 294 292 290 287 285 284 284 283 284 284 284 284
315 317 318 319 321 324 326 326 327 328 330 333 336 337 338 339 339 340 340 340 340 340 339 339 339 338 337 336 335 335 334 334 333 333 333 332 332 332 332 332 330 327 324 324 323 322 321 319 317 315 312 310 307 304 301 297 293 290 288 285 283 282 281 281 281 281 282 282 282
313 315 317 319 323 326 327 327 328 331 333 336 338 340 341 342 342 342 341 342 342 342 342 340 339 338 337 336 334 332 330 330 330 330 330 330 330 331 333 334 330 324 321 321 322 321 319 316 313 311 308 305 303 301 299 297 294 290 287 284 282 282 281 281 281 282 282 282 282
312 315 318 322 326 328 329 330 332 335 337 340 340 342 343 344 342 341 341 341 342 342 341 339 337 335 334 332 330 328 327 327 327 328 328 328 328 329 331 333 326 315 313 316 317 318 316 314 311 309 307 305 303 302 301 300 296 291 288 285 284 283 282 283 283 283 283 283 283
313 317 323 327 330 332 333 335 337 339 340 342 342 343 344 343 341 339 339 339 340 340 339 336 333 331 330 328 327 326 325 326 327 327 327 326 326 325 326 327 321 308 305 310 313 314 314 312 310 309 307 306 305 305 304 304 298 292 288 286 285 284 284 284 284 284 284 284 283
315 321 328 332 334 337 338 340 341 341 341 342 343 344 343 341 339 337 336 336 337 337 336 333 330 328 326 325 324 324 325 326 327 327 326 324 323 322 322 323 318 307 303 307 310 312 312 311 310 309 308 307 306 306 306 305 300 294 289 286 285 285 285 285 285 284 284 284 284
318 325 333 336 338 340 341 341 341 340 339 339 341 342 341 339 337 335 333 333 334 334 332 330 328 326 324 323 322 324 325 326 326 326 325 324 323 321 320 321 316 306 303 306 310 311 311 310 309 308 308 307 307 307 307 305 300 295 290 287 286 285 285 286 286 285 285 284 284
323 331 336 339 340 341 341 340 340 338 336 336 339 339 337 335 334 332 330 330 331 330 329 328 327 325 323 322 323 324 325 325 324 324 324 323 323 321 320 319 314 307 305 308 311 312 312 311 311 310 310 309 309 308 307 304 299 295 291 288 286 286 286 286 285 284 284 283 283
329 336 339 341 341 339 338 338 337 334 332 333 334 334 332 331 330 329 328 327 328 328 327 327 326 325 323 323 324 325 325 324 323 323 322 322 321 320 318 317 313 309 308 310 312 314 314 314 313 313 312 312 311 310 308 304 299 294 290 288 286 285 284 284 284 284 285 285 285
331 334 337 338 337 336 335 335 332 330 329 330 330 329 328 327 327 326 325 325 326 326 326 326 325 324 323 323 324 325 326 325 322 321 321 320 319 318 317 316 314 312 312 313 315 316 316 316 316 315 314 313 312 311 308 303 297 292 289 286 285 284 283 285 286 288 288 287 286
325 325 326 329 332 334 334 331 328 326 326 326 327 326 326 325 324 323 323 324 324 324 324 323 324 323 323 324 325 326 326 325 322 319 318 318 318 317 317 316 316 316 316 316 317 318 318 318 317 316 315 315 314 312 307 301 296 292 289 288 287 287 288 289 289 289 288 287 287
326 326 325 329 333 334 332 329 325 324 323 324 323 323 323 322 321 321 322 323 323 322 322 321 322 323 323 324 325 325 324 324 321 317 315 316 317 318 318 318 319 319 319 319 319 319 319 318 318 317 317 316 315 312 307 302 298 295 293 292 291 291 291 290 289 288 287 288 289
330 330 331 333 334 334 332 328 325 324 323 322 322 321 321 321 321 320 321 320 320 320 320 320 321 322 323 324 323 322 321 322 321 317 315 316 317 319 320 320 321 321 321 321 320 319 319 319 319 319 319 318 317 314 310 305 299 295 291 290 289 289 289 289 289 289 289 290 291
Height
1523 1522 1521 1521 1520 1520 1519 1518 1518 1517 1517 1516 1516 1515 1514 1514 1513 1512 1511 1510 1509 1508 1506 1505 1503 1502 1501 1500 1499 1498 1497 1496 1495 1494 1493 1493 1492 1491 1490 1489 1488 1487 1487 1486 1485 1484 1482 1482 1481 1479 1478 1477 1477 1476 1475 1474 1473 1473 1472 1472 1472 1472 1471 1471 1470 1470 1470 1470 1470
1522 1521 1520 1520 1519 1519 1518 1518 1517 1517 1516 1516 1515 1514 1513 1512 1512 1510 1509 1508 1507 1506 1504 1503 1502 1500 1499 1498 1497 1496 1495 1495 1494 1493 1492 1491 1490 1489 1488 1487 1487 1485 1485 1484 1483 1482 1481 1480 1479 1478 1477 1476 1475 1474 1473 1472 1472 1472 1471 1471 1470 1470 1470 1470 1469 1469 1469 1469 1469
1521 1520 1520 1519 1519 1518 1518 1517 1517 1516 1515 1515 1514 1513 1512 1511 1510 1508 1507 1506 1505 1504 1502 1501 1499 1498 1497 1496 1495 1494 1494 1493 1492 1492 1490 1489 1488 1487 1487 1485 1484 1483 1483 1483 1482 1481 1480 1479 1477 1477 1476 1475 1474 1473 1472 1471 1471 1470 1470 1469 1469 1469 1469 1468 1468 1468 1468 1468 1467
1520 1519 1519 1518 1518 1517 1517 1516 1515 1514 1514 1513 1512 1511 1510 1509 1507 1506 1505 1504 1502 1502 1500 1499 1497 1496 1495 1494 1493 1492 1492 1491 1491 1490 1489 1488 1487 1486 1484 1483 1482 1482 1481 1481 1480 1479 1478 1477 1476 1476 1475 1474 1473 1472 1471 1470 1470 1469 1469 1469 1468 1468 1468 1467 1467 1467 1467 1467 1467
1519 1518 1518 1517 1517 1516 1515 1514 1514 1513 1512 1511 1510 1509 1508 1507 1506 1505 1503 1502 1501 1500 1498 1497 1496 1494 1493 1492 1491 1491 1490 1489 1488 1488 1487 1486 1485 1484 1483 1482 1481 1480 1480 1479 1478 1477 1476 1476 1475 1474 1474 1473 1472 1472 1471 1470 1469 1468 1468 1467 1467 1467 1467 1466 1466 1466 1466 1466 1465
1518 1517 1517 1516 1515 1514 1513 1513 1512 1511 1510 1509 1508 1507 1507 1506 1505 1504 1502 1501 1500 1498 1497 1495 1494 1492 1491 1490 1489 1488 1488 1487 1487 1486 1485 1484 1483 1482 1481 1480 1479 1479 1478 1477 1476 1475 1475 1474 1474 1473 1472 1472 1471 1470 1469 1469 1468 1467 1467 1466 1466 1465 1465 1465 1464 1464 1464 1464 1463
1517 1516 1516 1515 1514 1513 1512 1511 1510 1510 1509 1508 1507 1506 1505 1504 1503 1502 1501 1499 1498 1496 1495 1493 1492 1490 1489 1488 1487 1487 1486 1485 1484 1484 1483 1482 1481 1480 1479 1478 1477 1477 1476 1475 1475 1474 1473 1473 1472 1472 1471 1470 1469 1468 1468 1467 1466 1466 1465 1464 1464 1463 1463 1462 1462 1462 1462 1462 1462
1516 1515 1514 1513 1512 1511 1510 1509 1509 1508 1507 1506 1505 1504 1503 1502 1500 1499 1498 1497 1495 1494 1492 1491 1490 1488 1487 1487 1486 1485 1484 1483 1483 1482 1481 1480 1479 1478 1477 1477 1476 1475 1474 1474 1473 1472 1472 1471 1471 1470 1469 1468 1467 1466 1466 1465 1464 1464 1463 1462 1462 1461 1461 1460 1460 1460 1459 1459 1459
1514 1513 1512 1512 1511 1510 1509 1508 1507 1506 1505 1504 1503 1502 1501 1499 1497 1496 1495 1494 1493 1492 1490 1489 1487 1487 1486 1485 1484 1483 1482 1482 1481 1480 1479 1478 1477 1477 1476 1475 1474 1474 1473 1473 1472 1471 1470 1470 1469 1468 1467 1467 1466 1465 1464 1463 1462 1462 1461 1460 1460 1459 1458 1458 1458 1458 1458 1458 1458
1512 1512 1511 1510 1509 1508 1507 1506 1505 1504 1503 1502 1501 1500 1499 1497 1496 1495 1493 1492 1491 1489 1488 1487 1486 1485 1484 1483 1482 1482 1481 1480 1479 1478 1477 1477 1476 1475 1474 1473 1473 1472 1472 1471 1470 1470 1469 1468 1467 1467 1466 1465 1464 1463 1462 1461 1460 1460 1459 1458 1458 1457 1457 1457 1457 1457 1457 1457 1457
1511 1510 1509 1508 1507 1506 1505 1504 1503 1502 1502 1501 1500 1499 1497 1496 1495 1493 1492 1490 1489 1487 1486 1485 1484 1483 1482 1482 1481 1480 1479 1478 1477 1477 1476 1475 1474 1473 1472 1472 1471 1470 1469 1469 1468 1467 1467 1466 1465 1464 1463 1463 1462 1461 1460 1459 1459 1458 1457 1457 1457 1457 1457 1456 1456 1456 1456 1456 1456
1509 1508 1507 1507 1506 1505 1504 1502 1502 1501 1500 1499 1498 1497 1496 1495 1493 1492 1490 1489 1487 1486 1485 1484 1483 1482 1481 1481 1480 1479 1478 1477 1476 1476 1475 1474 1473 1472 1471 1471 1470 1469 1468 1467 1466 1465 1464 1463 1463 1462 1462 1461 1460 1460 1459 1458 1457 1457 1456 1456 1456 1456 1456 1456 1456 1456 1455 1455 1455
1508 1507 1506 1505 1504 1503 1502 1501 1500 1499 1498 1497 1496 1495 1494 1493 1492 1490 1489 1487 1486 1484 1483 1482 1482 1481 1480 1479 1479 1478 1477 1476 1476 1475 1474 1473 1472 1471 1470 1470 1469 1467 1466 1464 1463 1463 1462 1462 1461 1461 1460 1459 1459 1458 1457 1457 1456 1456 1455 1455 1455 1455 1455 1455 1455 1455 1455 1455 1454
1506 1506 1505 1504 1503 1502 1501 1499 1498 1497 1497 1496 1494 1493 1492 1491 1490 1488 1487 1485 1484 1483 1482 1481 1480 1479 1479 1478 1477 1477 1476 1476 1475 1474 1473 1472 1471 1470 1469 1468 1467 1466 1464 1462 1461 1461 1460 1460 1460 1459 1458 1457 1457 1456 1456 1455 1455 1455 1455 1454 1454 1454 1454 1454 1454 1454 1454 1454 1453
1505 1504 1503 1502 1501 1500 1499 1498 1497 1496 1495 1494 1492 1491 1490 1489 1487 1486 1485 1483 1482 1482 1481 1480 1479 1478 1477 1477 1476 1475 1475 1474 1474 1473 1472 1471 1469 1468 1467 1465 1464 1463 1462 1461 1460 1459 1459 1458 1458 1457 1457 1456 1455 1455 1454 1454 1454 1454 1454 1454 1453 1453 1453 1453 1453 1452 1452 1452 1452
1504 1503 1502 1501 1500 1499 1498 1497 1496 1494 1493 1492 1490 1489 1487 1486 1485 1484 1483 1482 1481 1480 1479 1478 1477 1477 1476 1476 1475 1474 1474 1473 1472 1471 1470 1468 1467 1465 1464 1463 1462 1462 1461 1460 1459 1458 1457 1457 1456 1456 1455 1454 1454 1453 1453 1452 1452 1452 1452 1452 1452 1452 1452 1452 1451 1451 1451 1450 1450
1502 1502 1501 1499 1498 1497 1496 1495 1494 1492 1491 1489 1488 1487 1485 1484 1483 1482 1481 1480 1479 1478 1477 1477 1476 1476 1475 1475 1474 1473 1472 1471 1470 1468 1467 1466 1464 1463 1462 1462 1461 1460 1459 1459 1457 1457 1456 1455 1454 1454 1453 1453 1452 1452 1451 1451 1451 1451 1451 1451 1450 1450 1450 1450 1450 1449 1449 1448 1448
1501 1500 1499 1498 1497 1496 1494 1493 1492 1490 1489 1487 1486 1484 1483 1482 1481 1480 1479 1477 1477 1476 1475 1474 1474 1474 1473 1473 1472 1470 1469 1468 1467 1466 1465 1464 1463 1462 1461 1460 1460 1459 1458 1457 1456 1455 1454 1453 1453 1452 1452 1451 1451 1450 1449 1449 1449 1449 1449 1449 1448 1448 1448 1448 1447 1447 1447 1447 1447
1499 1498 1497 1496 1494 1493 1492 1491 1489 1488 1487 1486 1484 1483 1481 1480 1478 1478 1477 1476 1475 1474 1474 1473 1472 1472 1471 1470 1468 1467 1466 1465 1465 1464 1463 1462 1461 1460 1459 1458 1457 1457 1456 1455 1454 1453 1452 1451 1451 1450 1449 1449 1448 1448 1447 1447 1447 1447 1447 1447 1446 1446 1446 1446 1445 1445 1445 1445 1445
1497 1496 1495 1494 1492 1491 1490 1489 1487 1486 1485 1484 1482 1481 1480 1478 1477 1476 1476 1475 1473 1472 1472 1471 1471 1469 1468 1467 1467 1466 1465 1464 1464 1462 1461 1460 1459 1458 1457 1456 1456 1455 1454 1453 1452 1451 1450 1449 1449 1448 1448 1447 1447 1447 1446 1445 1445 1445 1444 1444 1444 1444 1444 1443 1443 1443 1443 1443 1443
1495 1494 1493 1492 1490 1489 1488 1487 1486 1485 1483 1482 1481 1479 1478 1477 1476 1475 1474 1473 1472 1471 1471 1470 1469 1468 1467 1467 1466 1465 1464 1462 1462 1460 1459 1458 1457 1456 1455 1454 1454 1453 1452 1452 1451 1450 1449 1449 1448 1448 1447 1447 1447 1446 1445 1444 1444 1443 1442 1442 1442 1442 1441 1441 1441 1441 1441 1441 1441
1493 1492 1491 1490 1488 1487 1486 1485 1484 1483 1482 1480 1479 1477 1476 1475 1474 1473 1472 1472 1471 1470 1469 1468 1467 1466 1465 1464 1463 1462 1461 1460 1459 1458 1457 1456 1455 1455 1454 1453 1452 1452 1451 1450 1450 1449 1448 1448 1447 1447 1447 1446 1446 1445 1444 1443 1442 1442 1441 1440 1440 1439 1439 1439 1439 1438 1438 1438 1438
1492 1490 1489 1488 1487 1485 1484 1483 1482 1481 1480 1479 1477 1476 1475 1474 1473 1472 1471 1470 1469 1468 1467 1466 1465 1464 1463 1462 1461 1460 1460 1459 1458 1457 1456 1455 1454 1454 1453 1452 1451 1451 1450 1449 1448 1447 1447 1446 1446 1445 1445 1444 1444 1443 1442 1441 1440 1440 1439 1439 1438 1438 1437 1437 1437 1437 1436 1436 1436
1489 1488 1487 1486 1485 1483 1482 1482 1481 1480 1479 1477 1476 1474 1473 1472 1471 1470 1469 1469 1468 1467 1466 1465 1464 1463 1462 1461 1460 1459 1459 1458 1457 1456 1455 1454 1453 1452 1452 1451 1450 1449 1448 1447 1447 1446 1446 1445 1444 1444 1443 1442 1442 1441 1440 1439 1439 1438 1437 1437 1437 1436 1436 1436 1435 1435 1434 1434 1433
1487 1486 1484 1483 1483 1482 1481 1480 1479 1479 1477 1476 1475 1473 1472 1471 1470 1469 1468 1467 1466 1465 1465 1464 1462 1462 1461 1460 1459 1458 1457 1457 1456 1454 1453 1452 1452 1451 1450 1449 1448 1447 1447 1446 1445 1445 1444 1443 1443 1442 1442 1441 1440 1440 1439 1438 1437 1437 1436 1435 1435 1434 1434 1434 1433 1433 1432 1432 1431
1485 1484 1483 1482 1481 1480 1480 1479 1478 1477 1476 1475 1474 1472 1471 1470 1469 1468 1467 1466 1465 1465 1464 1463 1462 1461 1460 1459 1458 1457 1456 1455 1454 1453 1452 1451 1450 1449 1448 1447 1446 1445 1445 1444 1443 1443 1442 1442 1441 1441 1440 1439 1439 1438 1437 1437 1436 1435 1434 1433 1433 1432 1432 1432 1432 1431 1431 1430 1429
1483 1482 1481 1480 1480 1479 1478 1478 1477 1476 1475 1474 1473 1472 1470 1469 1468 1467 1467 1466 1465 1464 1463 1462 1461 1459 1458 1458 1457 1456 1455 1454 1452 1451 1450 1449 1448 1447 1447 1446 1445 1444 1443 1442 1442 1441 1441 1440 1440 1439 1438 1438 1437 1436 1435 1435 1434 1433 1432 1432 1431 1431 1430 1430 1430 1429 1429 1428 1427
1481 1480 1479 1479 1478 1477 1477 1476 1475 1474 1473 1472 1472 1471 1469 1468 1468 1467 1466 1465 1464 1463 1462 1461 1460 1458 1457 1457 1456 1455 1453 1452 1451 1450 1449 1448 1447 1446 1445 1444 1443 1442 1442 1441 1440 1440 1439 1438 1438 1437 1437 1436 1435 1434 1434 1433 1432 1432 1431 1431 1430 1429 1429 1428 1428 1427 1427 1426 1425
1479 1478 1478 1477 1477 1476 1475 1474 1474 1473 1472 1471 1470 1469 1468 1467 1467 1466 1465 1464 1463 1462 1461 1460 1459 1457 1457 1456 1455 1453 1452 1451 1450 1449 1447 1447 1446 1445 1444 1443 1442 1441 1440 1440 1439 1438 1437 1437 1436 1435 1435 1434 1433 1433 1432 1432 1432 1431 1430 1430 1429 1428 1428 1427 1426 1426 1425 1424 1423
1477 1477 1476 1475 1475 1474 1473 1473 1472 1471 1471 1470 1469 1468 1468 1467 1466 1465 1464 1463 1462 1461 1460 1459 1458 1457 1456 1455 1454 1453 1452 1451 1449 1448 1447 1446 1445 1444 1443 1442 1441 1440 1439 1438 1437 1437 1436 1435 1435 1434 1433 1433 1432 1432 1431 1431 1430 1430 1429 1428 1427 1427 1426 1425 1425 1424 1423 1422 1422
1476 1475 1474 1473 1473 1472 1472 1472 1471 1470 1469 1469 1468 1468 1467 1466 1465 1464 1463 1462 1462 1460 1459 1458 1457 1456 1455 1454 1453 1452 1451 1450 1449 1447 1446 1445 1444 1443 1442 1441 1440 1439 1437 1437 1436 1436 1435 1434 1433 1432 1432 1431 1431 1430 1429 1429 1428 1428 1427 1426 1426 1425 1424 1423 1422 1422 1421 1420 1419
1475 1474 1473 1472 1472 1471 1471 1470 1470 1469 1468 1468 1467 1467 1466 1465 1465 1464 1462 1462 1461 1459 1458 1457 1457 1456 1455 1454 1453 1452 1451 1449 1448 1447 1446 1444 1443 1442 1442 1441 1440 1438 1436 1435 1435 1434 1433 1433 1432 1431 1430 1429 1429 1428 1427 1427 1426 1426 1425 1424 1423 1422 1422 1421 1420 1419 1418 1418 1417
1474 1473 1472 1471 1471 1470 1470 1469 1469 1468 1468 1467 1467 1466 1465 1464 1464 1463 1462 1461 1460 1459 1458 1457 1456 1455 1454 1453 1452 1451 1449 1448 1447 1446 1445 1444 1443 1442 1441 1441 1440 1438 1436 1434 1434 1433 1432 1431 1430 1429 1428 1427 1427 1426 1425 1424 1424 1423 1423 1422 1421 1420 1420 1419 1418 1417 1416 1415 1415
1473 1472 1471 1471 1470 1469 1469 1468 1468 1467 1467 1467 1466 1465 1464 1463 1462 1462 1461 1460 1459 1458 1457 1456 1455 1454 1453 1452 1451 1449 1448 1446 1445 1444 1443 1442 1442 1441 1440 1439 1439 1437 1434 1433 1432 1432 1431 1430 1428 1427 1427 1426 1425 1424 1423 1422 1422 1421 1421 1420 1419 1418 1417 1417 1416 1415 1414 1413 1412
1472 1471 1471 1470 1470 1469 1468 1468 1468 1467 1467 1466 1465 1464 1463 1462 1462 1461 1460 1459 1458 1457 1456 1455 1454 1453 1452 1451 1449 1448 1447 1445 1444 1443 1442 1441 1440 1439 1438 1438 1438 1436 1433 1432 1431 1430 1429 1428 1427 1426 1425 1424 1423 1422 1421 1420 1420 1419 1418 1417 1417 1416 1415 1414 1413 1412 1411 1411 1410
1471 1470 1470 1470 1469 1469 1468 1468 1467 1467 1466 1465 1464 1463 1462 1462 1461 1460 1459 1458 1457 1456 1455 1454 1453 1452 1451 1449 1448 1447 1445 1444 1442 1441 1440 1439 1438 1437 1437 1436 1436 1434 1432 1430 1429 1428 1427 1426 1425 1424 1423 1422 1421 1420 1419 1418 1417 1417 1416 1415 1414 1414 1413 1412 1411 1410 1409 1408 1407
1470 1470 1470 1469 1469 1468 1468 1467 1467 1466 1465 1464 1463 1462 1462 1461 1460 1459 1458 1457 1456 1455 1454 1452 1452 1451 1449 1448 1447 1445 1444 1443 1442 1440 1439 1438 1437 1436 1435 1434 1434 1432 1431 1429 1427 1427 1426 1425 1423 1422 1421 1420 1419 1418 1417 1416 1415 1415 1414 1413 1412 1412 1411 1409 1408 1407 1406 1405 1404
1470 1469 1469 1469 1468 1468 1467 1467 1466 1465 1464 1463 1462 1461 1461 1460 1459 1458 1457 1455 1454 1453 1452 1451 1450 1449 1448 1447 1445 1444 1442 1442 1440 1439 1437 1436 1435 1434 1433 1432 1432 1431 1429 1427 1426 1425 1424 1423 1422 1420 1419 1418 1417 1416 1415 1414 1413 1412 1412 1411 1410 1408 1407 1406 1405 1404 1403 1402 1402
1469 1469 1469 1468 1467 1467 1466 1466 1465 1464 1463 1462 1461 1460 1459 1458 1457 1457 1455 1454 1453 1452 1451 1450 1449 1448 1446 1445 1444 1442 1441 1440 1439 1437 1436 1435 1434 1433 1432 1431 1430 1429 1427 1426 1424 1423 1422 1421 1420 1418 1417 1416 1415 1414 1413 1412 1411 1410 1409 1408 1407 1406 1405 1404 1403 1402 1401 1400 1399
1468 1468 1468 1467 1467 1466 1466 1465 1464 1463 1462 1461 1460 1459 1458 1457 1456 1455 1454 1453 1452 1451 1450 1449 1448 1447 1445 1443 1442 1441 1440 1439 1438 1437 1435 1433 1432 1431 1430 1429 1428 1427 1426 1424 1423 1422 1420 1419 1418 1417 1415 1414 1413 1412 1411 1410 1409 1408 1407 1406 1405 1404 1403 1402 1401 1400 1399 1398 1397
1467 1467 1467 1466 1466 1465 1465 1464 1463 1462 1461 1460 1459 1458 1457 1456 1455 1454 1453 1452 1451 1450 1449 1448 1447 1445 1444 1442 1441 1440 1439 1437 1437 1435 1434 1432 1431 1429 1428 1427 1426 1425 1424 1423 1421 1420 1419 1417 1416 1415 1413 1412 1411 1410 1409 1408 1407 1407 1406 1405 1404 1403 1402 1400 1399 1398 1397 1396 1395